Time,TemperatureF,DewpointF,PressureIn,WindDirection,WindDirectionDegrees,WindSpeedMPH,WindSpeedGustMPH,Humidity,HourlyPrecipIn,Conditions,Clouds,dailyrainin,SoftwareType,DateUTC
2013-01-24 00:02:00,10.0,1.0,-100.00,North,5,19.0,24.0,68,0.00,,,-99.99,,2013-01-24 06:02:00,
2013-01-24 00:12:00,9.0,1.0,-100.00,North,0,17.0,24.0,68,0.00,,,-99.99,,2013-01-24 06:12:00,
2013-01-24 00:22:00,9.0,1.0,-100.00,North,5,17.0,24.0,68,0.00,,,-99.99,,2013-01-24 06:22:00,
2013-01-24 00:32:00,8.0,0.0,-100.00,North,0,11.0,19.0,68,0.00,,,-99.99,,2013-01-24 06:32:00,
2013-01-24 00:42:00,8.0,0.0,-100.00,North,0,13.0,20.0,69,0.00,,,-99.99,,2013-01-24 06:42:00,
2013-01-24 00:52:00,8.0,0.0,-100.00,North,0,13.0,20.0,69,0.00,,,-99.99,,2013-01-24 06:52:00,
2013-01-24 01:02:00,8.0,0.0,-100.00,North,0,10.0,12.0,71,0.00,,,-99.99,,2013-01-24 07:02:00,
2013-01-24 01:12:00,7.0,0.0,-100.00,North,0,12.0,17.0,71,0.00,,,-99.99,,2013-01-24 07:12:00,
2013-01-24 01:22:00,7.0,0.0,-100.00,North,0,10.0,18.0,71,0.00,,,-99.99,,2013-01-24 07:22:00,
2013-01-24 01:33:00,7.0,0.0,-100.00,North,355,11.0,15.0,72,0.00,,,-99.99,,2013-01-24 07:33:00,
2013-01-24 01:42:00,7.0,0.0,-100.00,North,355,11.0,15.0,72,0.00,,,-99.99,,2013-01-24 07:42:00,
2013-01-24 01:52:00,6.0,-1.0,-100.00,North,355,9.0,17.0,72,0.00,,,-99.99,,2013-01-24 07:52:00,
2013-01-24 02:02:00,6.0,-1.0,-100.00,North,355,9.0,17.0,72,0.00,,,-99.99,,2013-01-24 08:02:00,
2013-01-24 02:12:00,6.0,-1.0,-100.00,North,0,12.0,16.0,72,0.00,,,-99.99,,2013-01-24 08:12:00,
2013-01-24 02:22:00,6.0,-1.0,-100.00,North,355,11.0,17.0,71,0.00,,,-99.99,,2013-01-24 08:22:00,
2013-01-24 02:33:00,6.0,-2.0,-100.00,North,0,12.0,17.0,71,0.00,,,-99.99,,2013-01-24 08:33:00,
2013-01-24 02:42:00,6.0,-2.0,-100.00,North,0,11.0,17.0,71,0.00,,,-99.99,,2013-01-24 08:42:00,
2013-01-24 02:52:00,6.0,-2.0,-100.00,North,5,12.0,19.0,70,0.00,,,-99.99,,2013-01-24 08:52:00,
2013-01-24 03:03:00,5.0,-3.0,-100.00,North,5,12.0,16.0,69,0.00,,,-99.99,,2013-01-24 09:03:00,
2013-01-24 03:13:00,5.0,-3.0,-100.00,North,0,10.0,16.0,69,0.00,,,-99.99,,2013-01-24 09:13:00,
2013-01-24 03:22:00,5.0,-3.0,-100.00,North,5,12.0,17.0,69,0.00,,,-99.99,,2013-01-24 09:22:00,
2013-01-24 03:33:00,5.0,-3.0,-100.00,North,0,9.0,13.0,69,0.00,,,-99.99,,2013-01-24 09:33:00,
2013-01-24 03:43:00,5.0,-3.0,-100.00,North,0,12.0,17.0,69,0.00,,,-99.99,,2013-01-24 09:43:00,
2013-01-24 03:52:00,4.0,-3.0,-100.00,North,0,12.0,17.0,69,0.00,,,-99.99,,2013-01-24 09:52:00,
2013-01-24 04:02:00,4.0,-3.0,-100.00,North,0,12.0,17.0,69,0.00,,,-99.99,,2013-01-24 10:02:00,
2013-01-24 04:12:00,4.0,-4.0,-100.00,North,5,11.0,16.0,69,0.00,,,-99.99,,2013-01-24 10:12:00,
2013-01-24 04:22:00,4.0,-4.0,-100.00,North,0,11.0,15.0,69,0.00,,,-99.99,,2013-01-24 10:22:00,
2013-01-24 04:33:00,4.0,-4.0,-100.00,North,0,9.0,12.0,70,0.00,,,-99.99,,2013-01-24 10:33:00,
2013-01-24 04:43:00,4.0,-4.0,-100.00,North,0,9.0,12.0,70,0.00,,,-99.99,,2013-01-24 10:43:00,
2013-01-24 04:52:00,4.0,-4.0,-100.00,North,5,9.0,15.0,70,0.00,,,-99.99,,2013-01-24 10:52:00,
2013-01-24 05:02:00,4.0,-4.0,-100.00,North,5,10.0,16.0,70,0.00,,,-99.99,,2013-01-24 11:02:00,
2013-01-24 05:12:00,4.0,-4.0,-100.00,North,0,10.0,15.0,70,0.00,,,-99.99,,2013-01-24 11:12:00,
2013-01-24 05:22:00,4.0,-4.0,-100.00,North,0,10.0,15.0,70,0.00,,,-99.99,,2013-01-24 11:22:00,
2013-01-24 05:33:00,4.0,-4.0,-100.00,North,0,8.0,14.0,70,0.00,,,-99.99,,2013-01-24 11:33:00,
2013-01-24 05:43:00,4.0,-4.0,-100.00,North,0,8.0,14.0,70,0.00,,,-99.99,,2013-01-24 11:43:00,
2013-01-24 05:52:00,4.0,-4.0,-100.00,North,0,8.0,14.0,70,0.00,,,-99.99,,2013-01-24 11:52:00,
2013-01-24 06:03:00,4.0,-4.0,-100.00,NNE,20,8.0,13.0,71,0.00,,,-99.99,,2013-01-24 12:03:00,
2013-01-24 06:12:00,3.0,-4.0,-100.00,NNE,20,8.0,12.0,71,0.00,,,-99.99,,2013-01-24 12:12:00,
2013-01-24 06:22:00,3.0,-4.0,-100.00,North,5,8.0,11.0,71,0.00,,,-99.99,,2013-01-24 12:22:00,
2013-01-24 06:33:00,3.0,-4.0,-100.00,North,0,7.0,13.0,71,0.00,,,-99.99,,2013-01-24 12:33:00,
2013-01-24 06:42:00,4.0,-4.0,-100.00,North,5,7.0,11.0,71,0.00,,,-99.99,,2013-01-24 12:42:00,
2013-01-24 06:53:00,4.0,-4.0,-100.00,North,5,6.0,7.0,71,0.00,,,-99.99,,2013-01-24 12:53:00,
2013-01-24 07:03:00,4.0,-4.0,-100.00,North,10,9.0,10.0,71,0.00,,,-99.99,,2013-01-24 13:03:00,
2013-01-24 07:12:00,4.0,-4.0,-100.00,North,5,7.0,14.0,71,0.00,,,-99.99,,2013-01-24 13:12:00,
2013-01-24 07:22:00,4.0,-4.0,-100.00,North,10,7.0,11.0,71,0.00,,,-99.99,,2013-01-24 13:22:00,
2013-01-24 07:33:00,4.0,-3.0,-100.00,NNE,25,7.0,10.0,71,0.00,,,-99.99,,2013-01-24 13:33:00,
2013-01-24 07:43:00,4.0,-3.0,-100.00,NNE,25,7.0,10.0,71,0.00,,,-99.99,,2013-01-24 13:43:00,
2013-01-24 07:52:00,4.0,-3.0,-100.00,NNE,25,4.0,11.0,71,0.00,,,-99.99,,2013-01-24 13:52:00,
2013-01-24 08:02:00,4.0,-3.0,-100.00,NNE,25,4.0,11.0,71,0.00,,,-99.99,,2013-01-24 14:02:00,
2013-01-24 08:12:00,4.0,-3.0,-100.00,NNE,15,7.0,11.0,71,0.00,,,-99.99,,2013-01-24 14:12:00,
2013-01-24 08:23:00,5.0,-3.0,-100.00,NNE,20,6.0,9.0,71,0.00,,,-99.99,,2013-01-24 14:23:00,
2013-01-24 08:33:00,5.0,-3.0,-100.00,NNE,20,8.0,12.0,70,0.00,,,-99.99,,2013-01-24 14:33:00,
2013-01-24 08:43:00,5.0,-3.0,-100.00,NNE,20,8.0,12.0,70,0.00,,,-99.99,,2013-01-24 14:43:00,
2013-01-24 08:53:00,5.0,-3.0,-100.00,NNE,30,7.0,12.0,69,0.00,,,-99.99,,2013-01-24 14:53:00,
2013-01-24 09:03:00,5.0,-2.0,-100.00,NNE,30,6.0,12.0,69,0.00,,,-99.99,,2013-01-24 15:03:00,
2013-01-24 09:12:00,6.0,-2.0,-100.00,ENE,60,6.0,10.0,69,0.00,,,-99.99,,2013-01-24 15:12:00,
2013-01-24 09:23:00,6.0,-2.0,-100.00,NE,45,3.0,7.0,68,0.00,,,-99.99,,2013-01-24 15:23:00,
2013-01-24 09:33:00,6.0,-2.0,-100.00,NE,45,3.0,7.0,68,0.00,,,-99.99,,2013-01-24 15:33:00,
2013-01-24 09:43:00,6.0,-2.0,-100.00,ENE,75,7.0,11.0,67,0.00,,,-99.99,,2013-01-24 15:43:00,
2013-01-24 09:52:00,6.0,-2.0,-100.00,ENE,60,9.0,12.0,67,0.00,,,-99.99,,2013-01-24 15:52:00,
2013-01-24 10:03:00,7.0,-2.0,-100.00,NE,40,8.0,12.0,67,0.00,,,-99.99,,2013-01-24 16:03:00,
2013-01-24 10:12:00,7.0,-1.0,-100.00,NE,55,7.0,13.0,67,0.00,,,-99.99,,2013-01-24 16:12:00,
2013-01-24 10:22:00,8.0,-1.0,-100.00,ENE,65,8.0,14.0,66,0.00,,,-99.99,,2013-01-24 16:22:00,
2013-01-24 10:33:00,8.0,-1.0,-100.00,ENE,65,10.0,13.0,66,0.00,,,-99.99,,2013-01-24 16:33:00,
2013-01-24 10:42:00,8.0,-1.0,-100.00,ENE,65,10.0,13.0,66,0.00,,,-99.99,,2013-01-24 16:42:00,
2013-01-24 11:02:00,9.0,0.0,-100.00,ENE,75,8.0,12.0,65,0.00,,,-99.99,,2013-01-24 17:02:00,
2013-01-24 11:12:00,10.0,1.0,-100.00,East,95,8.0,13.0,64,0.00,,,-99.99,,2013-01-24 17:12:00,
2013-01-24 11:21:00,10.0,1.0,-100.00,East,95,8.0,13.0,64,0.00,,,-99.99,,2013-01-24 17:21:00,
2013-01-24 11:32:00,11.0,1.0,-100.00,East,80,7.0,12.0,63,0.00,,,-99.99,,2013-01-24 17:32:00,
2013-01-24 11:42:00,12.0,2.0,-100.00,ENE,65,7.0,14.0,63,0.00,,,-99.99,,2013-01-24 17:42:00,
2013-01-24 11:52:00,12.0,2.0,-100.00,ESE,105,8.0,12.0,62,0.00,,,-99.99,,2013-01-24 17:52:00,
2013-01-24 12:02:00,12.0,2.0,-100.00,East,100,9.0,12.0,62,0.00,,,-99.99,,2013-01-24 18:02:00,
2013-01-24 12:12:00,13.0,2.0,-100.00,NE,50,4.0,11.0,61,0.00,,,-99.99,,2013-01-24 18:12:00,
2013-01-24 12:22:00,13.0,2.0,-100.00,East,85,3.0,12.0,61,0.00,,,-99.99,,2013-01-24 18:22:00,
2013-01-24 12:32:00,14.0,3.0,-100.00,East,85,8.0,12.0,60,0.00,,,-99.99,,2013-01-24 18:32:00,
2013-01-24 12:42:00,14.0,3.0,-100.00,East,85,7.0,9.0,59,0.00,,,-99.99,,2013-01-24 18:42:00,
2013-01-24 12:52:00,14.0,3.0,-100.00,East,80,6.0,10.0,59,0.00,,,-99.99,,2013-01-24 18:52:00,
2013-01-24 13:02:00,14.0,3.0,-100.00,East,80,6.0,10.0,59,0.00,,,-99.99,,2013-01-24 19:02:00,
2013-01-24 13:12:00,15.0,3.0,-100.00,East,100,5.0,10.0,58,0.00,,,-99.99,,2013-01-24 19:12:00,
2013-01-24 13:22:00,15.0,3.0,-100.00,ENE,65,6.0,7.0,57,0.00,,,-99.99,,2013-01-24 19:22:00,
2013-01-24 13:33:00,15.0,3.0,-100.00,ENE,75,8.0,12.0,57,0.00,,,-99.99,,2013-01-24 19:33:00,
2013-01-24 13:42:00,16.0,3.0,-100.00,East,80,7.0,11.0,56,0.00,,,-99.99,,2013-01-24 19:42:00,
2013-01-24 13:52:00,16.0,3.0,-100.00,ESE,105,4.0,11.0,55,0.00,,,-99.99,,2013-01-24 19:52:00,
2013-01-24 14:02:00,16.0,3.0,-100.00,ESE,105,6.0,11.0,55,0.00,,,-99.99,,2013-01-24 20:02:00,
2013-01-24 14:11:00,16.0,3.0,-100.00,ESE,110,6.0,11.0,54,0.00,,,-99.99,,2013-01-24 20:11:00,
2013-01-24 14:22:00,16.0,3.0,-100.00,ESE,110,6.0,10.0,54,0.00,,,-99.99,,2013-01-24 20:22:00,
2013-01-24 14:32:00,17.0,4.0,-100.00,ESE,115,6.0,10.0,54,0.00,,,-99.99,,2013-01-24 20:32:00,
2013-01-24 14:42:00,17.0,3.0,-100.00,ESE,120,4.0,9.0,54,0.00,,,-99.99,,2013-01-24 20:42:00,
2013-01-24 14:52:00,18.0,4.0,-100.00,SE,125,4.0,7.0,53,0.00,,,-99.99,,2013-01-24 20:52:00,
2013-01-24 15:02:00,18.0,3.0,-100.00,SE,125,4.0,7.0,53,0.00,,,-99.99,,2013-01-24 21:02:00,
2013-01-24 15:12:00,17.0,3.0,-100.00,East,95,7.0,11.0,52,0.00,,,-99.99,,2013-01-24 21:12:00,
2013-01-24 15:22:00,17.0,3.0,-100.00,East,90,7.0,11.0,52,0.00,,,-99.99,,2013-01-24 21:22:00,
2013-01-24 15:33:00,17.0,3.0,-100.00,SE,125,7.0,11.0,52,0.00,,,-99.99,,2013-01-24 21:33:00,
2013-01-24 15:43:00,18.0,3.0,-100.00,East,100,7.0,11.0,51,0.00,,,-99.99,,2013-01-24 21:43:00,
2013-01-24 15:52:00,17.0,3.0,-100.00,ESE,115,7.0,14.0,51,0.00,,,-99.99,,2013-01-24 21:52:00,
2013-01-24 16:03:00,17.0,3.0,-100.00,East,95,7.0,12.0,51,0.00,,,-99.99,,2013-01-24 22:03:00,
2013-01-24 16:12:00,17.0,3.0,-100.00,ESE,105,9.0,11.0,52,0.00,,,-99.99,,2013-01-24 22:12:00,
2013-01-24 16:22:00,17.0,3.0,-100.00,ESE,110,7.0,12.0,52,0.00,,,-99.99,,2013-01-24 22:22:00,
2013-01-24 16:32:00,17.0,3.0,-100.00,East,95,8.0,12.0,52,0.00,,,-99.99,,2013-01-24 22:32:00,
2013-01-24 16:42:00,17.0,3.0,-100.00,ESE,115,8.0,12.0,53,0.00,,,-99.99,,2013-01-24 22:42:00,
2013-01-24 16:52:00,17.0,4.0,-100.00,ESE,120,9.0,14.0,53,0.00,,,-99.99,,2013-01-24 22:52:00,
2013-01-24 17:02:00,18.0,4.0,-100.00,East,95,9.0,13.0,54,0.00,,,-99.99,,2013-01-24 23:02:00,
2013-01-24 17:12:00,18.0,4.0,-100.00,East,100,7.0,14.0,54,0.00,,,-99.99,,2013-01-24 23:12:00,
2013-01-24 17:22:00,18.0,4.0,-100.00,ESE,115,9.0,12.0,54,0.00,,,-99.99,,2013-01-24 23:22:00,
2013-01-24 17:32:00,18.0,4.0,-100.00,ESE,105,7.0,11.0,54,0.00,,,-99.99,,2013-01-24 23:32:00,
2013-01-24 17:42:00,18.0,4.0,-100.00,ESE,115,7.0,14.0,55,0.00,,,-99.99,,2013-01-24 23:42:00,
2013-01-24 17:52:00,18.0,5.0,-100.00,SE,125,6.0,10.0,55,0.00,,,-99.99,,2013-01-24 23:52:00,
2013-01-24 18:02:00,18.0,5.0,-100.00,SE,125,7.0,10.0,55,0.00,,,-99.99,,2013-01-25 00:02:00,
2013-01-24 18:12:00,18.0,5.0,-100.00,ESE,110,6.0,10.0,56,0.00,,,-99.99,,2013-01-25 00:12:00,
2013-01-24 18:22:00,18.0,5.0,-100.00,ESE,115,7.0,11.0,56,0.00,,,-99.99,,2013-01-25 00:22:00,
2013-01-24 18:32:00,18.0,5.0,-100.00,East,100,7.0,11.0,56,0.00,,,-99.99,,2013-01-25 00:32:00,
2013-01-24 18:42:00,18.0,6.0,-100.00,ESE,110,6.0,11.0,57,0.00,,,-99.99,,2013-01-25 00:42:00,
2013-01-24 18:52:00,18.0,6.0,-100.00,ESE,105,7.0,12.0,57,0.00,,,-99.99,,2013-01-25 00:52:00,
2013-01-24 19:01:00,19.0,6.0,-100.00,ESE,115,6.0,10.0,57,0.00,,,-99.99,,2013-01-25 01:01:00,
2013-01-24 19:12:00,18.0,6.0,-100.00,SE,125,7.0,11.0,57,0.00,,,-99.99,,2013-01-25 01:12:00,
2013-01-24 19:21:00,18.0,6.0,-100.00,SE,130,6.0,8.0,58,0.00,,,-99.99,,2013-01-25 01:21:00,
2013-01-24 19:32:00,18.0,6.0,-100.00,SE,130,6.0,11.0,58,0.00,,,-99.99,,2013-01-25 01:32:00,
2013-01-24 19:42:00,18.0,6.0,-100.00,SE,130,6.0,11.0,58,0.00,,,-99.99,,2013-01-25 01:42:00,
2013-01-24 19:52:00,18.0,7.0,-100.00,ESE,120,7.0,11.0,59,0.00,,,-99.99,,2013-01-25 01:52:00,
2013-01-24 20:02:00,18.0,7.0,-100.00,ESE,105,6.0,11.0,60,0.00,,,-99.99,,2013-01-25 02:02:00,
2013-01-24 20:11:00,18.0,7.0,-100.00,ESE,110,6.0,10.0,60,0.00,,,-99.99,,2013-01-25 02:11:00,
2013-01-24 20:22:00,19.0,8.0,-100.00,ESE,110,5.0,10.0,61,0.00,,,-99.99,,2013-01-25 02:22:00,
2013-01-24 20:32:00,19.0,8.0,-100.00,ESE,105,6.0,10.0,62,0.00,,,-99.99,,2013-01-25 02:32:00,
2013-01-24 20:42:00,19.0,8.0,-100.00,ESE,105,6.0,10.0,62,0.00,,,-99.99,,2013-01-25 02:42:00,
2013-01-24 20:52:00,19.0,8.0,-100.00,East,95,6.0,9.0,63,0.00,,,-99.99,,2013-01-25 02:52:00,
2013-01-24 21:02:00,19.0,9.0,-100.00,East,100,6.0,9.0,63,0.00,,,-99.99,,2013-01-25 03:02:00,
2013-01-24 21:12:00,19.0,9.0,-100.00,East,95,6.0,9.0,64,0.00,,,-99.99,,2013-01-25 03:12:00,
2013-01-24 21:22:00,19.0,9.0,-100.00,East,90,6.0,9.0,65,0.00,,,-99.99,,2013-01-25 03:22:00,
2013-01-24 21:33:00,19.0,9.0,-100.00,East,100,6.0,9.0,65,0.00,,,-99.99,,2013-01-25 03:33:00,
2013-01-24 21:42:00,19.0,9.0,-100.00,ESE,105,7.0,11.0,66,0.00,,,-99.99,,2013-01-25 03:42:00,
2013-01-24 21:52:00,19.0,10.0,-100.00,ESE,115,6.0,10.0,67,0.00,,,-99.99,,2013-01-25 03:52:00,
2013-01-24 22:02:00,19.0,10.0,-100.00,ESE,115,7.0,10.0,67,0.00,,,-99.99,,2013-01-25 04:02:00,
2013-01-24 22:12:00,19.0,10.0,-100.00,SE,125,7.0,10.0,67,0.00,,,-99.99,,2013-01-25 04:12:00,
2013-01-24 22:22:00,19.0,10.0,-100.00,ESE,105,6.0,9.0,67,0.00,,,-99.99,,2013-01-25 04:22:00,
2013-01-24 22:32:00,19.0,10.0,-100.00,ESE,115,7.0,10.0,67,0.00,,,-99.99,,2013-01-25 04:32:00,
2013-01-24 22:41:00,19.0,10.0,-100.00,SE,125,7.0,10.0,67,0.00,,,-99.99,,2013-01-25 04:41:00,
2013-01-24 22:51:00,20.0,11.0,-100.00,ESE,110,7.0,9.0,67,0.00,,,-99.99,,2013-01-25 04:51:00,
2013-01-24 23:03:00,20.0,11.0,-100.00,SE,135,7.0,10.0,66,0.00,,,-99.99,,2013-01-25 05:03:00,
2013-01-24 23:12:00,20.0,11.0,-100.00,ESE,115,8.0,13.0,66,0.00,,,-99.99,,2013-01-25 05:12:00,
2013-01-24 23:22:00,20.0,11.0,-100.00,SE,135,6.0,12.0,65,0.00,,,-99.99,,2013-01-25 05:22:00,
2013-01-24 23:32:00,20.0,11.0,-100.00,ESE,115,9.0,13.0,64,0.00,,,-99.99,,2013-01-25 05:32:00,
2013-01-24 23:43:00,20.0,11.0,-100.00,ESE,110,9.0,13.0,64,0.00,,,-99.99,,2013-01-25 05:43:00,
2013-01-24 23:52:00,20.0,10.0,-100.00,ESE,115,9.0,13.0,64,0.00,,,-99.99,,2013-01-25 05:52:00,